TimeEDT,TemperatureF,Dew PointF,Humidity,Sea Level PressureIn,VisibilityMPH,Wind Direction,Wind SpeedMPH,Gust SpeedMPH,PrecipitationIn,Events,Conditions,WindDirDegrees,DateUTC
12:53 AM,71.1,66.9,87,30.11,10.0,SW,4.6,-,N/A,,Clear,220,2013-06-22 04:53:00
1:53 AM,70.0,66.9,90,30.13,10.0,Calm,Calm,-,N/A,,Clear,0,2013-06-22 05:53:00
2:53 AM,66.9,66.0,97,30.14,8.0,SE,3.5,-,N/A,,Clear,140,2013-06-22 06:53:00
3:53 AM,66.0,66.0,100,30.13,7.0,Calm,Calm,-,N/A,,Clear,0,2013-06-22 07:53:00
4:27 AM,64.4,64.4,100,30.14,2.5,Calm,Calm,-,N/A,,Clear,0,2013-06-22 08:27:00
4:36 AM,66.2,64.4,94,30.14,6.0,Calm,Calm,-,N/A,,Clear,0,2013-06-22 08:36:00
4:53 AM,64.9,64.9,100,30.12,6.0,Calm,Calm,-,N/A,,Clear,0,2013-06-22 08:53:00
5:53 AM,66.0,64.9,96,30.13,6.0,Calm,Calm,-,N/A,,Mostly Cloudy,0,2013-06-22 09:53:00
6:53 AM,66.0,64.9,96,30.15,4.0,Calm,Calm,-,N/A,,Partly Cloudy,0,2013-06-22 10:53:00
7:53 AM,69.1,68.0,96,30.16,5.0,Calm,Calm,-,N/A,,Clear,0,2013-06-22 11:53:00
8:53 AM,73.9,69.1,85,30.18,10.0,SW,3.5,-,N/A,,Clear,220,2013-06-22 12:53:00
9:53 AM,79.0,71.1,77,30.19,10.0,Variable,4.6,-,N/A,,Clear,0,2013-06-22 13:53:00
10:53 AM,82.0,72.0,71,30.18,10.0,SSW,5.8,-,N/A,,Scattered Clouds,200,2013-06-22 14:53:00
11:53 AM,84.9,70.0,61,30.17,10.0,SSW,8.1,-,N/A,,Partly Cloudy,210,2013-06-22 15:53:00
12:53 PM,86.0,71.1,61,30.15,10.0,South,6.9,-,N/A,,Partly Cloudy,190,2013-06-22 16:53:00
1:53 PM,87.1,70.0,57,30.14,10.0,South,9.2,-,N/A,,Clear,170,2013-06-22 17:53:00
2:53 PM,87.1,70.0,57,30.12,10.0,South,6.9,-,N/A,,Clear,190,2013-06-22 18:53:00
3:53 PM,88.0,71.1,57,30.10,10.0,South,5.8,-,N/A,,Clear,170,2013-06-22 19:53:00
4:53 PM,84.9,68.0,57,30.08,10.0,NW,5.8,-,N/A,,Partly Cloudy,310,2013-06-22 20:53:00
5:53 PM,84.0,68.0,58,30.06,10.0,West,5.8,-,N/A,,Mostly Cloudy,280,2013-06-22 21:53:00
6:53 PM,82.0,66.0,58,30.07,10.0,WNW,8.1,-,N/A,,Overcast,290,2013-06-22 22:53:00
7:53 PM,79.0,69.1,72,30.09,10.0,WNW,9.2,-,N/A,,Mostly Cloudy,290,2013-06-22 23:53:00
8:53 PM,77.0,66.0,69,30.09,10.0,West,5.8,-,N/A,,Clear,280,2013-06-23 00:53:00
9:53 PM,69.1,66.9,93,30.09,9.0,Calm,Calm,-,N/A,,Clear,0,2013-06-23 01:53:00
10:53 PM,70.0,66.0,87,30.11,9.0,West,3.5,-,N/A,,Clear,260,2013-06-23 02:53:00
11:53 PM,68.0,66.9,96,30.11,6.0,Calm,Calm,-,N/A,,Clear,0,2013-06-23 03:53:00